Time,TemperatureF,DewpointF,PressureIn,WindDirection,WindDirectionDegrees,WindSpeedMPH,WindSpeedGustMPH,Humidity,HourlyPrecipIn,Conditions,Clouds,dailyrainin,SoftwareType,DateUTC
2013-09-06 00:02:00,70.9,57.7,29.15,SE,135,3.1,4.0,63,0.00,,,0.00,VWS V13.01,2013-09-06 05:02:00,
2013-09-06 00:07:00,70.9,57.7,29.15,SE,137,0.0,3.1,63,0.00,,,0.00,VWS V13.01,2013-09-06 05:07:00,
2013-09-06 00:12:00,70.7,57.5,29.15,East,101,3.1,3.1,63,0.00,,,0.00,VWS V13.01,2013-09-06 05:12:00,
2013-09-06 00:17:00,70.7,58.8,29.15,ESE,114,4.0,5.8,66,0.00,,,0.00,VWS V13.01,2013-09-06 05:17:00,
2013-09-06 00:22:00,70.5,59.0,29.15,ESE,118,3.1,4.0,67,0.00,,,0.00,VWS V13.01,2013-09-06 05:22:00,
2013-09-06 00:27:00,70.5,59.0,29.15,SE,135,6.3,6.3,67,0.00,,,0.00,VWS V13.01,2013-09-06 05:27:00,
2013-09-06 00:32:00,70.7,60.5,29.15,SE,125,3.6,5.8,70,0.00,,,0.00,VWS V13.01,2013-09-06 05:32:00,
2013-09-06 00:37:00,70.7,60.5,29.15,ESE,123,4.0,4.0,70,0.00,,,0.00,VWS V13.01,2013-09-06 05:37:00,
2013-09-06 00:42:00,70.7,60.5,29.15,SE,130,3.6,4.0,70,0.00,,,0.00,VWS V13.01,2013-09-06 05:42:00,
2013-09-06 00:47:00,70.7,60.8,29.15,ESE,119,5.4,5.8,71,0.00,,,0.00,VWS V13.01,2013-09-06 05:47:00,
2013-09-06 00:52:00,70.7,61.2,29.15,ESE,105,5.4,5.4,72,0.00,,,0.00,VWS V13.01,2013-09-06 05:52:00,
2013-09-06 00:57:00,70.7,62.0,29.15,SE,128,2.7,3.6,74,0.00,,,0.00,VWS V13.01,2013-09-06 05:57:00,
2013-09-06 01:02:00,70.7,62.4,29.15,East,97,5.8,5.8,75,0.00,,,0.00,VWS V13.01,2013-09-06 06:02:00,
2013-09-06 01:07:00,70.7,62.4,29.15,ESE,115,4.0,4.5,75,0.00,,,0.00,VWS V13.01,2013-09-06 06:07:00,
2013-09-06 01:12:00,70.7,62.8,29.15,SSE,153,3.1,3.1,76,0.00,,,0.00,VWS V13.01,2013-09-06 06:12:00,
2013-09-06 01:17:00,70.7,62.8,29.15,SE,127,5.4,6.3,76,0.00,,,0.00,VWS V13.01,2013-09-06 06:17:00,
2013-09-06 01:22:00,70.9,63.3,29.15,SSE,152,6.3,6.3,77,0.00,,,0.00,VWS V13.01,2013-09-06 06:22:00,
2013-09-06 01:27:00,70.9,63.3,29.15,SSE,156,6.3,6.3,77,0.00,,,0.00,VWS V13.01,2013-09-06 06:27:00,
2013-09-06 01:32:00,70.9,63.3,29.15,ESE,118,5.8,5.8,77,0.00,,,0.00,VWS V13.01,2013-09-06 06:32:00,
2013-09-06 01:38:00,70.9,63.3,29.15,SE,137,5.4,5.4,77,0.00,,,0.00,VWS V13.01,2013-09-06 06:38:00,
2013-09-06 01:42:00,70.9,63.3,29.15,SSE,168,4.0,7.6,77,0.00,,,0.00,VWS V13.01,2013-09-06 06:42:00,
2013-09-06 01:47:00,70.9,63.7,29.15,SE,137,2.7,6.3,78,0.00,,,0.00,VWS V13.01,2013-09-06 06:47:00,
2013-09-06 01:53:00,70.9,63.7,29.15,SE,137,5.8,5.8,78,0.00,,,0.00,VWS V13.01,2013-09-06 06:53:00,
2013-09-06 01:58:00,70.9,63.7,29.15,ESE,109,5.8,5.8,78,0.00,,,0.00,VWS V13.01,2013-09-06 06:58:00,
2013-09-06 02:03:00,70.9,64.1,29.15,SSE,149,5.4,5.4,79,0.00,,,0.00,VWS V13.01,2013-09-06 07:03:00,
2013-09-06 02:08:00,70.9,64.1,29.15,SSE,159,5.8,5.8,79,0.00,,,0.00,VWS V13.01,2013-09-06 07:08:00,
2013-09-06 02:13:00,70.9,64.1,29.15,SE,142,5.4,5.4,79,0.00,,,0.00,VWS V13.01,2013-09-06 07:13:00,
2013-09-06 02:18:00,70.9,64.1,29.15,NNW,345,4.0,4.0,79,0.00,,,0.00,VWS V13.01,2013-09-06 07:18:00,
2013-09-06 02:23:00,70.9,64.1,29.15,South,172,0.0,0.0,79,0.00,,,0.00,VWS V13.01,2013-09-06 07:23:00,
2013-09-06 02:28:00,70.7,63.9,29.15,East,86,3.1,3.6,79,0.00,,,0.00,VWS V13.01,2013-09-06 07:28:00,
2013-09-06 02:33:00,70.9,64.1,29.15,ESE,118,3.6,5.8,79,0.00,,,0.00,VWS V13.01,2013-09-06 07:33:00,
2013-09-06 02:38:00,70.9,64.1,29.15,SE,143,6.3,6.3,79,0.00,,,0.00,VWS V13.01,2013-09-06 07:38:00,
2013-09-06 02:43:00,70.9,64.4,29.15,ESE,112,3.6,5.4,80,0.00,,,0.00,VWS V13.01,2013-09-06 07:43:00,
2013-09-06 02:48:00,70.9,64.4,29.15,SE,139,3.6,3.6,80,0.00,,,0.00,VWS V13.01,2013-09-06 07:48:00,
2013-09-06 02:53:00,70.9,64.1,29.15,SE,126,4.9,4.9,79,0.00,,,0.00,VWS V13.01,2013-09-06 07:53:00,
2013-09-06 02:58:00,70.9,64.1,29.15,SE,142,5.4,5.4,79,0.00,,,0.00,VWS V13.01,2013-09-06 07:58:00,
2013-09-06 03:03:00,70.7,63.9,29.15,SE,129,3.6,4.0,79,0.00,,,0.00,VWS V13.01,2013-09-06 08:03:00,
2013-09-06 03:08:00,70.7,64.2,29.15,SE,138,5.4,5.8,80,0.00,,,0.00,VWS V13.01,2013-09-06 08:08:00,
2013-09-06 03:13:00,70.9,64.4,29.15,SE,129,5.4,5.4,80,0.00,,,0.00,VWS V13.01,2013-09-06 08:13:00,
2013-09-06 03:18:00,70.9,64.4,29.15,ESE,118,3.1,5.8,80,0.00,,,0.00,VWS V13.01,2013-09-06 08:18:00,
2013-09-06 03:23:00,70.9,64.4,29.15,SSE,167,5.4,5.4,80,0.00,,,0.00,VWS V13.01,2013-09-06 08:23:00,
2013-09-06 03:28:00,70.9,64.4,29.15,SE,142,4.9,5.4,80,0.00,,,0.00,VWS V13.01,2013-09-06 08:28:00,
2013-09-06 03:33:00,70.9,64.4,29.15,South,169,2.7,3.6,80,0.00,,,0.00,VWS V13.01,2013-09-06 08:33:00,
2013-09-06 03:38:00,70.9,64.4,29.15,ESE,106,8.1,8.1,80,0.00,,,0.00,VWS V13.01,2013-09-06 08:38:00,
2013-09-06 03:43:00,71.1,64.6,29.15,South,173,3.6,6.3,80,0.00,,,0.00,VWS V13.01,2013-09-06 08:43:00,
2013-09-06 03:48:00,71.1,64.6,29.15,SE,144,6.3,6.3,80,0.00,,,0.00,VWS V13.01,2013-09-06 08:48:00,
2013-09-06 03:53:00,71.1,64.6,29.15,SE,132,3.6,4.5,80,0.00,,,0.00,VWS V13.01,2013-09-06 08:53:00,
2013-09-06 03:58:00,71.1,64.6,29.15,ESE,118,4.0,5.4,80,0.00,,,0.00,VWS V13.01,2013-09-06 08:58:00,
2013-09-06 04:03:00,71.1,64.2,29.15,SE,137,3.1,4.0,79,0.00,,,0.00,VWS V13.01,2013-09-06 09:03:00,
2013-09-06 04:08:00,71.2,64.4,29.15,ESE,120,3.1,5.4,79,0.00,,,0.00,VWS V13.01,2013-09-06 09:08:00,
2013-09-06 04:13:00,71.1,64.2,29.15,SE,145,4.9,5.4,79,0.00,,,0.00,VWS V13.01,2013-09-06 09:13:00,
2013-09-06 04:18:00,71.1,64.2,29.15,SSE,163,4.0,8.7,79,0.00,,,0.00,VWS V13.01,2013-09-06 09:18:00,
2013-09-06 04:23:00,71.1,64.2,29.15,SE,128,4.9,4.9,79,0.00,,,0.00,VWS V13.01,2013-09-06 09:23:00,
2013-09-06 04:28:00,71.1,64.2,29.15,SE,137,3.1,4.0,79,0.00,,,0.00,VWS V13.01,2013-09-06 09:28:00,
2013-09-06 04:33:00,71.1,64.2,29.15,SE,130,5.4,5.4,79,0.00,,,0.00,VWS V13.01,2013-09-06 09:33:00,
2013-09-06 04:38:00,71.1,64.2,29.15,SSE,168,6.3,6.3,79,0.00,,,0.00,VWS V13.01,2013-09-06 09:38:00,
2013-09-06 04:43:00,71.1,64.6,29.15,SE,130,5.8,6.3,80,0.00,,,0.00,VWS V13.01,2013-09-06 09:43:00,
2013-09-06 04:48:00,71.1,64.6,29.15,SE,130,3.6,3.6,80,0.00,,,0.00,VWS V13.01,2013-09-06 09:48:00,
2013-09-06 04:53:00,70.9,64.1,29.15,SE,146,6.3,6.3,79,0.00,,,0.00,VWS V13.01,2013-09-06 09:53:00,
2013-09-06 04:58:00,70.9,64.1,29.15,ESE,119,5.8,5.8,79,0.00,,,0.00,VWS V13.01,2013-09-06 09:58:00,
2013-09-06 05:03:00,70.9,64.4,29.15,ESE,111,3.6,3.6,80,0.00,,,0.00,VWS V13.01,2013-09-06 10:03:00,
2013-09-06 05:08:00,70.9,64.4,29.15,SE,137,5.4,6.3,80,0.00,,,0.00,VWS V13.01,2013-09-06 10:08:00,
2013-09-06 05:13:00,70.9,64.4,29.12,SSE,156,5.8,6.3,80,0.00,,,0.00,VWS V13.01,2013-09-06 10:13:00,
2013-09-06 05:18:00,70.9,64.4,29.12,ESE,117,4.9,4.9,80,0.00,,,0.00,VWS V13.01,2013-09-06 10:18:00,
2013-09-06 05:23:00,70.9,64.4,29.12,SE,127,4.0,4.0,80,0.00,,,0.00,VWS V13.01,2013-09-06 10:23:00,
2013-09-06 05:28:00,70.9,64.4,29.12,SE,140,3.6,6.3,80,0.00,,,0.00,VWS V13.01,2013-09-06 10:28:00,
2013-09-06 05:33:00,70.9,64.4,29.12,SE,142,3.6,3.6,80,0.00,,,0.00,VWS V13.01,2013-09-06 10:33:00,
2013-09-06 05:38:00,70.7,64.2,29.12,SSE,159,4.0,4.0,80,0.00,,,0.00,VWS V13.01,2013-09-06 10:38:00,
2013-09-06 05:43:00,70.7,64.2,29.12,SE,130,6.3,6.3,80,0.00,,,0.00,VWS V13.01,2013-09-06 10:43:00,
2013-09-06 05:48:00,70.7,64.2,29.12,SE,125,4.0,4.9,80,0.00,,,0.00,VWS V13.01,2013-09-06 10:48:00,
2013-09-06 05:53:00,70.5,64.1,29.12,SE,136,5.4,5.4,80,0.00,,,0.00,VWS V13.01,2013-09-06 10:53:00,
2013-09-06 05:58:00,70.5,64.1,29.12,SE,130,4.0,6.3,80,0.00,,,0.00,VWS V13.01,2013-09-06 10:58:00,
2013-09-06 06:03:00,70.3,63.9,29.12,SE,133,5.8,5.8,80,0.00,,,0.00,VWS V13.01,2013-09-06 11:03:00,
2013-09-06 06:08:00,70.3,64.2,29.12,SE,136,4.0,5.4,81,0.00,,,0.00,VWS V13.01,2013-09-06 11:08:00,
2013-09-06 06:13:00,70.2,64.1,29.12,SE,128,3.1,3.6,81,0.00,,,0.00,VWS V13.01,2013-09-06 11:13:00,
2013-09-06 06:18:00,70.2,64.4,29.12,SE,137,3.6,5.8,82,0.00,,,0.00,VWS V13.01,2013-09-06 11:18:00,
2013-09-06 06:23:00,70.3,64.6,29.12,ESE,116,5.4,5.8,82,0.00,,,0.00,VWS V13.01,2013-09-06 11:23:00,
2013-09-06 06:28:00,70.2,64.4,29.12,SE,141,2.7,4.0,82,0.00,,,0.00,VWS V13.01,2013-09-06 11:28:00,
2013-09-06 06:33:00,70.2,64.8,29.12,SE,136,5.4,8.1,83,0.00,,,0.00,VWS V13.01,2013-09-06 11:33:00,
2013-09-06 06:38:00,70.2,64.4,29.12,SE,127,4.9,5.4,82,0.00,,,0.00,VWS V13.01,2013-09-06 11:38:00,
2013-09-06 06:43:00,70.2,64.4,29.12,SSE,155,4.9,5.4,82,0.00,,,0.00,VWS V13.01,2013-09-06 11:43:00,
2013-09-06 06:48:00,70.2,64.4,29.12,SE,132,5.8,5.8,82,0.00,,,0.00,VWS V13.01,2013-09-06 11:48:00,
2013-09-06 06:53:00,70.0,64.6,29.12,SE,129,3.1,5.4,83,0.00,,,0.00,VWS V13.01,2013-09-06 11:53:00,
2013-09-06 06:59:00,70.0,64.6,29.12,ESE,116,5.8,5.8,83,0.00,,,0.00,VWS V13.01,2013-09-06 11:59:00,
2013-09-06 07:04:00,70.2,64.8,29.12,SE,128,3.6,6.3,83,0.00,,,0.00,VWS V13.01,2013-09-06 12:04:00,
2013-09-06 07:09:00,70.2,64.8,29.12,ESE,122,5.8,5.8,83,0.00,,,0.00,VWS V13.01,2013-09-06 12:09:00,
2013-09-06 07:14:00,70.2,64.8,29.12,SE,139,5.8,6.3,83,0.00,,,0.00,VWS V13.01,2013-09-06 12:14:00,
2013-09-06 07:19:00,70.3,64.6,29.12,SSE,147,3.1,6.3,82,0.00,,,0.00,VWS V13.01,2013-09-06 12:19:00,
2013-09-06 07:24:00,70.5,64.8,29.12,South,169,4.0,8.7,82,0.00,,,0.00,VWS V13.01,2013-09-06 12:24:00,
2013-09-06 07:29:00,70.5,64.1,29.09,SE,136,4.0,8.1,80,0.00,,,0.00,VWS V13.01,2013-09-06 12:29:00,
2013-09-06 07:34:00,70.7,63.9,29.09,SE,144,4.0,5.4,79,0.00,,,0.00,VWS V13.01,2013-09-06 12:34:00,
2013-09-06 07:39:00,70.9,63.7,29.09,ESE,106,5.4,8.1,78,0.00,,,0.00,VWS V13.01,2013-09-06 12:39:00,
2013-09-06 07:44:00,70.9,63.3,29.09,SE,126,8.3,8.3,77,0.00,,,0.00,VWS V13.01,2013-09-06 12:44:00,
2013-09-06 07:49:00,71.1,63.1,29.09,SE,143,6.3,8.7,76,0.00,,,0.00,VWS V13.01,2013-09-06 12:49:00,
2013-09-06 07:54:00,71.1,62.7,29.09,SSE,164,6.3,6.3,75,0.00,,,0.00,VWS V13.01,2013-09-06 12:54:00,
2013-09-06 07:59:00,71.2,62.9,29.09,ESE,113,6.3,6.3,75,0.00,,,0.00,VWS V13.01,2013-09-06 12:59:00,
2013-09-06 08:04:00,71.2,62.2,29.09,SSE,158,3.6,6.3,73,0.00,,,0.00,VWS V13.01,2013-09-06 13:04:00,
2013-09-06 08:09:00,71.4,62.3,29.09,SE,139,5.4,7.6,73,0.00,,,0.00,VWS V13.01,2013-09-06 13:09:00,
2013-09-06 08:14:00,71.6,61.7,29.09,SSE,162,4.9,7.6,71,0.00,,,0.00,VWS V13.01,2013-09-06 13:14:00,
2013-09-06 08:19:00,71.6,61.3,29.09,South,187,5.4,7.6,70,0.00,,,0.00,VWS V13.01,2013-09-06 13:19:00,
2013-09-06 08:24:00,71.8,61.1,29.09,SSE,151,8.7,8.7,69,0.00,,,0.00,VWS V13.01,2013-09-06 13:24:00,
2013-09-06 08:29:00,71.8,60.7,29.09,SSE,152,5.8,5.8,68,0.00,,,0.00,VWS V13.01,2013-09-06 13:29:00,
2013-09-06 08:34:00,72.0,60.8,29.09,SE,142,6.3,7.6,68,0.00,,,0.00,VWS V13.01,2013-09-06 13:34:00,
2013-09-06 08:39:00,72.1,60.2,29.09,SE,129,6.3,7.6,66,0.00,,,0.00,VWS V13.01,2013-09-06 13:39:00,
2013-09-06 08:44:00,72.3,59.9,29.09,SE,136,5.4,6.3,65,0.00,,,0.00,VWS V13.01,2013-09-06 13:44:00,
2013-09-06 08:49:00,72.5,59.2,29.09,SSE,160,4.9,6.3,63,0.00,,,0.00,VWS V13.01,2013-09-06 13:49:00,
2013-09-06 08:54:00,72.9,59.1,29.09,SE,142,6.3,6.3,62,0.00,,,0.00,VWS V13.01,2013-09-06 13:54:00,
2013-09-06 08:59:00,73.2,57.6,29.09,ESE,117,4.9,5.8,58,0.00,,,0.00,VWS V13.01,2013-09-06 13:59:00,
2013-09-06 09:04:00,73.8,56.6,29.09,SSW,201,3.1,8.3,55,0.00,,,0.00,VWS V13.01,2013-09-06 14:04:00,
2013-09-06 09:09:00,74.1,54.3,29.09,SSE,157,5.4,5.8,50,0.00,,,0.00,VWS V13.01,2013-09-06 14:09:00,
2013-09-06 09:14:00,74.3,52.8,29.09,SSW,203,8.7,8.7,47,0.00,,,0.00,VWS V13.01,2013-09-06 14:14:00,
2013-09-06 09:19:00,74.7,52.5,29.09,South,181,6.3,8.1,46,0.00,,,0.00,VWS V13.01,2013-09-06 14:19:00,
2013-09-06 09:24:00,75.6,51.5,29.09,ESE,122,8.1,8.3,43,0.00,,,0.00,VWS V13.01,2013-09-06 14:24:00,
2013-09-06 09:29:00,76.3,51.5,29.09,SSW,211,8.7,8.7,42,0.00,,,0.00,VWS V13.01,2013-09-06 14:29:00,
2013-09-06 09:34:00,76.5,51.7,29.09,SE,146,4.0,6.3,42,0.00,,,0.00,VWS V13.01,2013-09-06 14:34:00,
2013-09-06 09:39:00,76.8,50.7,29.09,SE,142,7.2,7.2,40,0.00,,,0.00,VWS V13.01,2013-09-06 14:39:00,
2013-09-06 09:44:00,77.7,48.7,29.09,SSE,148,8.1,11.4,36,0.00,,,0.00,VWS V13.01,2013-09-06 14:44:00,
2013-09-06 09:49:00,77.9,48.8,29.09,SSW,193,8.3,8.3,36,0.00,,,0.00,VWS V13.01,2013-09-06 14:49:00,
2013-09-06 09:54:00,78.3,48.4,29.09,SSE,155,3.6,5.4,35,0.00,,,0.00,VWS V13.01,2013-09-06 14:54:00,
2013-09-06 09:59:00,78.6,47.9,29.06,SE,137,10.1,10.1,34,0.00,,,0.00,VWS V13.01,2013-09-06 14:59:00,
2013-09-06 10:04:00,78.6,47.9,29.06,SSE,163,6.3,8.3,34,0.00,,,0.00,VWS V13.01,2013-09-06 15:04:00,
2013-09-06 10:09:00,79.0,46.6,29.06,SE,133,8.7,8.7,32,0.00,,,0.00,VWS V13.01,2013-09-06 15:09:00,
2013-09-06 10:14:00,79.0,47.5,29.06,SE,139,4.9,6.3,33,0.00,,,0.00,VWS V13.01,2013-09-06 15:14:00,
2013-09-06 10:19:00,78.8,45.6,29.06,South,190,11.0,11.4,31,0.00,,,0.00,VWS V13.01,2013-09-06 15:19:00,
2013-09-06 10:24:00,79.2,46.8,29.06,SE,136,8.3,8.3,32,0.00,,,0.00,VWS V13.01,2013-09-06 15:24:00,
2013-09-06 10:29:00,79.7,46.4,29.06,ESE,109,5.8,6.3,31,0.00,,,0.00,VWS V13.01,2013-09-06 15:29:00,
2013-09-06 10:34:00,79.5,46.3,29.06,ESE,117,4.5,4.5,31,0.00,,,0.00,VWS V13.01,2013-09-06 15:34:00,
2013-09-06 10:39:00,79.7,46.4,29.06,SSW,204,8.3,8.3,31,0.00,,,0.00,VWS V13.01,2013-09-06 15:39:00,
2013-09-06 10:44:00,79.7,46.4,29.06,ESE,115,8.3,8.3,31,0.00,,,0.00,VWS V13.01,2013-09-06 15:44:00,
2013-09-06 10:49:00,79.7,46.4,29.06,South,171,8.1,8.1,31,0.00,,,0.00,VWS V13.01,2013-09-06 15:49:00,
2013-09-06 10:54:00,79.9,46.6,29.06,ESE,105,12.8,12.8,31,0.00,,,0.00,VWS V13.01,2013-09-06 15:54:00,
2013-09-06 10:59:00,79.9,45.7,29.06,SSE,150,11.0,11.0,30,0.00,,,0.00,VWS V13.01,2013-09-06 15:59:00,
2013-09-06 11:04:00,80.2,46.9,29.06,SSE,159,6.3,10.1,31,0.00,,,0.00,VWS V13.01,2013-09-06 16:04:00,
2013-09-06 11:09:00,81.0,46.6,29.06,SSE,166,6.3,6.3,30,0.00,,,0.00,VWS V13.01,2013-09-06 16:09:00,
2013-09-06 11:14:00,81.3,47.0,29.06,SSE,152,3.1,7.6,30,0.00,,,0.00,VWS V13.01,2013-09-06 16:14:00,
2013-09-06 11:19:00,81.9,46.5,29.06,SSE,150,5.8,13.2,29,0.00,,,0.00,VWS V13.01,2013-09-06 16:19:00,
2013-09-06 11:24:00,82.2,46.8,29.06,SE,136,8.3,8.7,29,0.00,,,0.00,VWS V13.01,2013-09-06 16:24:00,
2013-09-06 11:29:00,82.2,46.8,29.06,SSE,168,6.7,8.1,29,0.00,,,0.00,VWS V13.01,2013-09-06 16:29:00,
2013-09-06 11:34:00,82.6,47.1,29.06,ESE,123,8.1,8.1,29,0.00,,,0.00,VWS V13.01,2013-09-06 16:34:00,
2013-09-06 11:39:00,83.1,44.7,29.06,SE,145,7.6,12.8,26,0.00,,,0.00,VWS V13.01,2013-09-06 16:39:00,
2013-09-06 11:44:00,83.3,43.8,29.06,South,189,4.0,11.0,25,0.00,,,0.00,VWS V13.01,2013-09-06 16:44:00,
2013-09-06 11:49:00,83.5,44.0,29.06,SSE,168,7.6,7.6,25,0.00,,,0.00,VWS V13.01,2013-09-06 16:49:00,
2013-09-06 11:54:00,83.8,45.3,29.03,SE,143,3.1,4.0,26,0.00,,,0.00,VWS V13.01,2013-09-06 16:54:00,
2013-09-06 11:59:00,84.4,43.7,29.03,South,175,4.5,10.5,24,0.00,,,0.00,VWS V13.01,2013-09-06 16:59:00,
2013-09-06 12:04:00,84.4,42.6,29.03,SE,128,12.8,12.8,23,0.00,,,0.00,VWS V13.01,2013-09-06 17:04:00,
2013-09-06 12:09:00,84.4,43.7,29.06,ENE,62,8.3,8.3,24,0.00,,,0.00,VWS V13.01,2013-09-06 17:09:00,
2013-09-06 12:14:00,84.6,43.8,29.06,SE,142,10.5,10.5,24,0.00,,,0.00,VWS V13.01,2013-09-06 17:14:00,
2013-09-06 12:19:00,84.6,43.8,29.06,SE,137,4.0,9.6,24,0.00,,,0.00,VWS V13.01,2013-09-06 17:19:00,
2013-09-06 12:24:00,84.7,44.0,29.06,SE,143,5.8,7.2,24,0.00,,,0.00,VWS V13.01,2013-09-06 17:24:00,
2013-09-06 12:29:00,85.1,43.2,29.06,SE,141,10.5,13.2,23,0.00,,,0.00,VWS V13.01,2013-09-06 17:29:00,
2013-09-06 12:34:00,84.9,43.0,29.06,South,175,7.6,8.3,23,0.00,,,0.00,VWS V13.01,2013-09-06 17:34:00,
2013-09-06 12:39:00,85.5,44.6,29.03,SE,140,6.3,7.6,24,0.00,,,0.00,VWS V13.01,2013-09-06 17:39:00,
2013-09-06 12:44:00,85.8,44.9,29.03,SSE,149,6.7,6.7,24,0.00,,,0.00,VWS V13.01,2013-09-06 17:44:00,
2013-09-06 12:49:00,86.2,42.9,29.03,SE,139,8.1,10.1,22,0.00,,,0.00,VWS V13.01,2013-09-06 17:49:00,
2013-09-06 12:54:00,86.0,42.8,29.03,East,86,7.6,7.6,22,0.00,,,0.00,VWS V13.01,2013-09-06 17:54:00,
2013-09-06 12:59:00,86.2,41.7,29.03,South,173,5.8,7.6,21,0.00,,,0.00,VWS V13.01,2013-09-06 17:59:00,
2013-09-06 13:04:00,86.2,41.7,29.03,SE,142,8.1,8.1,21,0.00,,,0.00,VWS V13.01,2013-09-06 18:04:00,
2013-09-06 13:09:00,86.7,42.2,29.03,SSW,207,10.5,10.5,21,0.00,,,0.00,VWS V13.01,2013-09-06 18:09:00,
2013-09-06 13:14:00,87.1,42.5,29.03,SE,126,8.3,9.2,21,0.00,,,0.00,VWS V13.01,2013-09-06 18:14:00,
2013-09-06 13:19:00,87.4,41.5,29.03,SSE,147,12.3,12.3,20,0.00,,,0.00,VWS V13.01,2013-09-06 18:19:00,
2013-09-06 13:24:00,87.4,42.8,29.03,ESE,114,7.2,10.1,21,0.00,,,0.00,VWS V13.01,2013-09-06 18:24:00,
2013-09-06 13:30:00,87.8,41.8,29.03,WNW,283,8.7,12.8,20,0.00,,,0.00,VWS V13.01,2013-09-06 18:30:00,
2013-09-06 13:35:00,87.6,41.6,29.03,SSE,152,15.4,17.9,20,0.00,,,0.00,VWS V13.01,2013-09-06 18:35:00,
2013-09-06 13:40:00,87.6,41.6,29.03,SSE,158,13.2,13.2,20,0.00,,,0.00,VWS V13.01,2013-09-06 18:40:00,
2013-09-06 13:45:00,88.2,42.1,29.03,SSE,166,8.1,8.1,20,0.00,,,0.00,VWS V13.01,2013-09-06 18:45:00,
2013-09-06 13:50:00,88.7,42.5,29.03,SSE,152,8.3,8.7,20,0.00,,,0.00,VWS V13.01,2013-09-06 18:50:00,
2013-09-06 13:55:00,88.7,42.5,29.03,ESE,118,10.1,10.1,20,0.00,,,0.00,VWS V13.01,2013-09-06 18:55:00,
2013-09-06 14:00:00,88.7,42.5,29.03,SSW,194,5.4,8.7,20,0.00,,,0.00,VWS V13.01,2013-09-06 19:00:00,
2013-09-06 14:05:00,88.7,41.2,29.03,South,179,8.7,9.6,19,0.00,,,0.00,VWS V13.01,2013-09-06 19:05:00,
2013-09-06 14:10:00,89.1,41.5,29.03,SE,129,5.8,12.8,19,0.00,,,0.00,VWS V13.01,2013-09-06 19:10:00,
2013-09-06 14:15:00,89.4,41.8,29.03,South,179,7.2,10.5,19,0.00,,,0.00,VWS V13.01,2013-09-06 19:15:00,
2013-09-06 14:20:00,89.4,41.8,29.03,SSE,151,6.3,8.7,19,0.00,,,0.00,VWS V13.01,2013-09-06 19:20:00,
2013-09-06 14:25:00,89.4,41.8,29.03,SE,130,10.5,10.5,19,0.00,,,0.00,VWS V13.01,2013-09-06 19:25:00,
2013-09-06 14:30:00,89.2,41.6,29.03,ESE,106,2.7,4.9,19,0.00,,,0.00,VWS V13.01,2013-09-06 19:30:00,
2013-09-06 14:35:00,89.2,41.6,29.03,ESE,112,8.7,9.2,19,0.00,,,0.00,VWS V13.01,2013-09-06 19:35:00,
2013-09-06 14:40:00,89.6,41.9,29.03,South,188,5.4,5.8,19,0.00,,,0.00,VWS V13.01,2013-09-06 19:40:00,
2013-09-06 14:45:00,89.8,42.1,29.03,South,173,5.8,8.1,19,0.00,,,0.00,VWS V13.01,2013-09-06 19:45:00,
2013-09-06 14:50:00,89.8,42.1,29.03,SSE,147,6.3,8.1,19,0.00,,,0.00,VWS V13.01,2013-09-06 19:50:00,
2013-09-06 14:55:00,89.6,40.5,29.03,South,185,8.3,8.3,18,0.00,,,0.00,VWS V13.01,2013-09-06 19:55:00,
2013-09-06 15:00:00,90.0,42.2,29.03,South,171,9.2,9.2,19,0.00,,,0.00,VWS V13.01,2013-09-06 20:00:00,
2013-09-06 15:05:00,90.1,42.4,29.03,South,176,10.1,10.1,19,0.00,,,0.00,VWS V13.01,2013-09-06 20:05:00,
2013-09-06 15:10:00,90.1,42.4,29.03,SE,131,4.0,8.7,19,0.00,,,0.00,VWS V13.01,2013-09-06 20:10:00,
2013-09-06 15:15:00,90.3,42.5,29.03,South,178,4.0,7.6,19,0.00,,,0.00,VWS V13.01,2013-09-06 20:15:00,
2013-09-06 15:20:00,90.7,42.8,29.03,SE,141,6.3,8.3,19,0.00,,,0.00,VWS V13.01,2013-09-06 20:20:00,
2013-09-06 15:25:00,90.5,41.3,29.00,SSE,152,8.3,9.6,18,0.00,,,0.00,VWS V13.01,2013-09-06 20:25:00,
2013-09-06 15:30:00,90.7,41.4,29.00,East,87,3.6,11.0,18,0.00,,,0.00,VWS V13.01,2013-09-06 20:30:00,
2013-09-06 15:35:00,91.0,41.7,29.00,WSW,246,0.0,4.0,18,0.00,,,0.00,VWS V13.01,2013-09-06 20:35:00,
2013-09-06 15:40:00,91.0,41.7,29.00,SSE,150,10.5,10.5,18,0.00,,,0.00,VWS V13.01,2013-09-06 20:40:00,
2013-09-06 15:45:00,90.5,41.3,29.00,SSE,152,7.6,11.4,18,0.00,,,0.00,VWS V13.01,2013-09-06 20:45:00,
2013-09-06 15:50:00,90.3,41.1,29.00,SSE,148,6.3,6.3,18,0.00,,,0.00,VWS V13.01,2013-09-06 20:50:00,
2013-09-06 15:55:00,90.0,40.8,29.00,SE,141,7.2,12.3,18,0.00,,,0.00,VWS V13.01,2013-09-06 20:55:00,
2013-09-06 16:00:00,89.4,41.8,29.00,SE,145,8.1,10.5,19,0.00,,,0.00,VWS V13.01,2013-09-06 21:00:00,
2013-09-06 16:05:00,89.1,41.5,29.00,SE,140,3.6,8.3,19,0.00,,,0.00,VWS V13.01,2013-09-06 21:05:00,
2013-09-06 16:10:00,89.2,41.6,29.00,South,175,8.3,10.1,19,0.00,,,0.00,VWS V13.01,2013-09-06 21:10:00,
2013-09-06 16:15:00,89.6,40.5,29.00,SE,131,10.1,10.1,18,0.00,,,0.00,VWS V13.01,2013-09-06 21:15:00,
2013-09-06 16:20:00,89.8,40.7,29.00,SE,131,3.6,11.4,18,0.00,,,0.00,VWS V13.01,2013-09-06 21:20:00,
2013-09-06 16:25:00,90.0,40.8,29.00,SSE,158,11.0,13.2,18,0.00,,,0.00,VWS V13.01,2013-09-06 21:25:00,
2013-09-06 16:30:00,90.1,41.0,29.00,SSE,154,6.3,9.2,18,0.00,,,0.00,VWS V13.01,2013-09-06 21:30:00,
2013-09-06 16:35:00,90.1,41.0,29.00,SE,135,12.3,12.3,18,0.00,,,0.00,VWS V13.01,2013-09-06 21:35:00,
2013-09-06 16:40:00,90.1,41.0,29.00,SE,143,12.3,12.3,18,0.00,,,0.00,VWS V13.01,2013-09-06 21:40:00,
2013-09-06 16:45:00,89.6,40.5,29.00,SE,125,4.9,13.2,18,0.00,,,0.00,VWS V13.01,2013-09-06 21:45:00,
2013-09-06 16:50:00,89.2,41.6,29.00,West,278,5.4,7.6,19,0.00,,,0.00,VWS V13.01,2013-09-06 21:50:00,
2013-09-06 16:55:00,88.9,41.3,29.00,SE,125,3.1,3.1,19,0.00,,,0.00,VWS V13.01,2013-09-06 21:55:00,
2013-09-06 17:00:00,88.5,41.0,29.00,SSE,163,12.3,12.3,19,0.00,,,0.00,VWS V13.01,2013-09-06 22:00:00,
2013-09-06 17:05:00,88.7,41.2,29.00,SSE,152,5.8,5.8,19,0.00,,,0.00,VWS V13.01,2013-09-06 22:05:00,
2013-09-06 17:10:00,89.1,41.5,29.00,ESE,113,4.0,4.0,19,0.00,,,0.00,VWS V13.01,2013-09-06 22:10:00,
2013-09-06 17:15:00,89.4,41.8,29.00,SE,145,8.1,8.1,19,0.00,,,0.00,VWS V13.01,2013-09-06 22:15:00,
2013-09-06 17:20:00,89.6,41.9,29.00,SSE,149,5.8,5.8,19,0.00,,,0.00,VWS V13.01,2013-09-06 22:20:00,
2013-09-06 17:25:00,89.1,41.5,29.00,SE,140,5.8,7.6,19,0.00,,,0.00,VWS V13.01,2013-09-06 22:25:00,
2013-09-06 17:30:00,88.5,41.0,29.00,SE,141,5.8,7.6,19,0.00,,,0.00,VWS V13.01,2013-09-06 22:30:00,
2013-09-06 17:35:00,88.5,41.0,29.00,SSE,165,5.8,8.1,19,0.00,,,0.00,VWS V13.01,2013-09-06 22:35:00,
2013-09-06 17:40:00,88.3,40.9,29.00,SE,129,7.6,8.3,19,0.00,,,0.00,VWS V13.01,2013-09-06 22:40:00,
2013-09-06 17:45:00,87.6,41.6,29.00,SE,142,3.1,3.1,20,0.00,,,0.00,VWS V13.01,2013-09-06 22:45:00,
2013-09-06 17:50:00,87.6,41.6,29.00,South,176,6.3,6.3,20,0.00,,,0.00,VWS V13.01,2013-09-06 22:50:00,
2013-09-06 17:55:00,88.2,42.1,29.00,SSE,165,5.4,5.4,20,0.00,,,0.00,VWS V13.01,2013-09-06 22:55:00,
2013-09-06 18:00:00,88.3,42.2,29.00,SSE,152,8.3,8.7,20,0.00,,,0.00,VWS V13.01,2013-09-06 23:00:00,
2013-09-06 18:05:00,88.3,42.2,29.00,SE,136,6.3,6.3,20,0.00,,,0.00,VWS V13.01,2013-09-06 23:05:00,
2013-09-06 18:10:00,88.2,42.1,29.00,SE,143,7.6,8.3,20,0.00,,,0.00,VWS V13.01,2013-09-06 23:10:00,
2013-09-06 18:15:00,87.8,41.8,29.00,SSE,152,5.4,9.6,20,0.00,,,0.00,VWS V13.01,2013-09-06 23:15:00,
2013-09-06 18:20:00,87.3,42.6,29.00,SE,130,5.4,5.4,21,0.00,,,0.00,VWS V13.01,2013-09-06 23:20:00,
2013-09-06 18:25:00,86.9,42.3,29.00,SE,133,5.4,8.3,21,0.00,,,0.00,VWS V13.01,2013-09-06 23:25:00,
2013-09-06 18:30:00,86.4,41.9,29.00,SSE,160,2.7,8.3,21,0.00,,,0.00,VWS V13.01,2013-09-06 23:30:00,
2013-09-06 18:35:00,86.0,42.8,29.00,SE,127,4.0,4.0,22,0.00,,,0.00,VWS V13.01,2013-09-06 23:35:00,
2013-09-06 18:40:00,85.6,43.6,29.00,SSE,150,4.9,5.4,23,0.00,,,0.00,VWS V13.01,2013-09-06 23:40:00,
2013-09-06 18:45:00,85.1,43.2,29.00,ESE,111,3.1,5.4,23,0.00,,,0.00,VWS V13.01,2013-09-06 23:45:00,
2013-09-06 18:50:00,84.6,43.8,29.00,East,94,5.4,5.4,24,0.00,,,0.00,VWS V13.01,2013-09-06 23:50:00,
2013-09-06 18:55:00,84.2,44.6,29.00,SE,140,2.7,2.7,25,0.00,,,0.00,VWS V13.01,2013-09-06 23:55:00,
2013-09-06 19:00:00,83.7,45.2,29.00,ESE,122,2.7,3.6,26,0.00,,,0.00,VWS V13.01,2013-09-07 00:00:00,
2013-09-06 19:05:00,83.1,45.7,29.00,SE,133,0.0,2.2,27,0.00,,,0.00,VWS V13.01,2013-09-07 00:05:00,
2013-09-06 19:10:00,82.6,47.1,29.00,ESE,120,0.0,0.0,29,0.00,,,0.00,VWS V13.01,2013-09-07 00:10:00,
2013-09-06 19:15:00,82.2,47.7,29.00,ESE,116,2.7,4.0,30,0.00,,,0.00,VWS V13.01,2013-09-07 00:15:00,
2013-09-06 19:20:00,82.0,47.6,29.00,SE,127,2.7,2.7,30,0.00,,,0.00,VWS V13.01,2013-09-07 00:20:00,
2013-09-06 19:25:00,81.7,47.3,29.00,SE,136,4.0,4.0,30,0.00,,,0.00,VWS V13.01,2013-09-07 00:25:00,
2013-09-06 19:30:00,81.5,48.0,29.00,ESE,121,2.7,3.1,31,0.00,,,0.00,VWS V13.01,2013-09-07 00:30:00,
2013-09-06 19:35:00,81.3,47.8,29.00,SE,138,4.0,4.0,31,0.00,,,0.00,VWS V13.01,2013-09-07 00:35:00,
2013-09-06 19:40:00,81.1,47.7,28.97,ESE,118,2.7,4.0,31,0.00,,,0.00,VWS V13.01,2013-09-07 00:40:00,
2013-09-06 19:45:00,81.0,47.5,28.97,SE,128,2.7,2.7,31,0.00,,,0.00,VWS V13.01,2013-09-07 00:45:00,
2013-09-06 19:50:00,80.8,47.4,28.97,ESE,108,2.7,3.1,31,0.00,,,0.00,VWS V13.01,2013-09-07 00:50:00,
2013-09-06 19:55:00,80.4,47.9,28.97,SE,127,2.7,2.7,32,0.00,,,0.00,VWS V13.01,2013-09-07 00:55:00,
2013-09-06 20:00:00,80.1,47.6,28.97,SSE,157,0.0,3.6,32,0.00,,,0.00,VWS V13.01,2013-09-07 01:00:00,
2013-09-06 20:05:00,79.9,47.4,28.97,SE,131,2.7,2.7,32,0.00,,,0.00,VWS V13.01,2013-09-07 01:05:00,
2013-09-06 20:10:00,79.7,48.1,28.97,ESE,111,3.1,3.6,33,0.00,,,0.00,VWS V13.01,2013-09-07 01:10:00,
2013-09-06 20:16:00,79.7,48.1,28.97,SE,129,4.9,4.9,33,0.00,,,0.00,VWS V13.01,2013-09-07 01:16:00,
2013-09-06 20:21:00,79.7,48.1,28.97,SE,134,2.7,3.6,33,0.00,,,0.00,VWS V13.01,2013-09-07 01:21:00,
2013-09-06 20:26:00,79.5,47.9,28.97,SE,137,2.7,3.6,33,0.00,,,0.00,VWS V13.01,2013-09-07 01:26:00,
2013-09-06 20:31:00,79.2,47.6,28.97,SE,136,6.3,6.3,33,0.00,,,0.00,VWS V13.01,2013-09-07 01:31:00,
2013-09-06 20:36:00,79.0,47.5,28.97,SE,140,3.6,5.4,33,0.00,,,0.00,VWS V13.01,2013-09-07 01:36:00,
2013-09-06 20:41:00,79.0,47.5,28.97,SE,127,2.7,5.4,33,0.00,,,0.00,VWS V13.01,2013-09-07 01:41:00,
2013-09-06 20:46:00,79.0,47.5,28.97,ESE,115,5.4,5.4,33,0.00,,,0.00,VWS V13.01,2013-09-07 01:46:00,
2013-09-06 20:51:00,79.2,47.6,28.97,SE,131,4.5,4.5,33,0.00,,,0.00,VWS V13.01,2013-09-07 01:51:00,
2013-09-06 20:56:00,79.0,47.5,28.97,ESE,118,3.1,4.0,33,0.00,,,0.00,VWS V13.01,2013-09-07 01:56:00,
2013-09-06 21:01:00,79.0,47.5,28.97,SE,126,5.4,5.4,33,0.00,,,0.00,VWS V13.01,2013-09-07 02:01:00,
2013-09-06 21:06:00,79.0,47.5,28.97,SE,133,6.3,6.3,33,0.00,,,0.00,VWS V13.01,2013-09-07 02:06:00,
2013-09-06 21:11:00,78.8,47.3,28.97,SE,130,3.6,3.6,33,0.00,,,0.00,VWS V13.01,2013-09-07 02:11:00,
2013-09-06 21:16:00,78.8,47.3,28.97,SSE,151,3.6,5.8,33,0.00,,,0.00,VWS V13.01,2013-09-07 02:16:00,
2013-09-06 21:21:00,78.6,47.1,28.97,SE,140,4.0,4.0,33,0.00,,,0.00,VWS V13.01,2013-09-07 02:21:00,
2013-09-06 21:26:00,78.6,47.1,28.97,SE,129,4.0,4.0,33,0.00,,,0.00,VWS V13.01,2013-09-07 02:26:00,
2013-09-06 21:31:00,78.6,47.1,28.97,SE,130,2.7,2.7,33,0.00,,,0.00,VWS V13.01,2013-09-07 02:31:00,
2013-09-06 21:36:00,78.3,46.8,28.97,SE,135,2.2,3.6,33,0.00,,,0.00,VWS V13.01,2013-09-07 02:36:00,
2013-09-06 21:41:00,78.1,46.7,28.97,ESE,110,2.7,4.0,33,0.00,,,0.00,VWS V13.01,2013-09-07 02:41:00,
2013-09-06 21:46:00,77.9,46.5,28.97,SE,132,4.0,4.0,33,0.00,,,0.00,VWS V13.01,2013-09-07 02:46:00,
2013-09-06 21:51:00,77.7,46.3,28.97,ESE,120,3.6,4.0,33,0.00,,,0.00,VWS V13.01,2013-09-07 02:51:00,
2013-09-06 21:56:00,77.5,47.0,28.97,ESE,119,3.6,3.6,34,0.00,,,0.00,VWS V13.01,2013-09-07 02:56:00,
2013-09-06 22:01:00,77.5,47.0,28.97,SE,124,4.9,4.9,34,0.00,,,0.00,VWS V13.01,2013-09-07 03:01:00,
2013-09-06 22:06:00,77.4,46.8,28.97,East,95,2.7,3.1,34,0.00,,,0.00,VWS V13.01,2013-09-07 03:06:00,
2013-09-06 22:11:00,77.2,46.7,28.97,ESE,112,4.9,4.9,34,0.00,,,0.00,VWS V13.01,2013-09-07 03:11:00,
2013-09-06 22:16:00,77.0,46.5,28.97,ESE,115,3.6,3.6,34,0.00,,,0.00,VWS V13.01,2013-09-07 03:16:00,
2013-09-06 22:21:00,77.0,46.5,28.97,SSE,166,3.6,4.9,34,0.00,,,0.00,VWS V13.01,2013-09-07 03:21:00,
2013-09-06 22:26:00,76.8,46.3,28.97,ESE,122,3.6,6.3,34,0.00,,,0.00,VWS V13.01,2013-09-07 03:26:00,
2013-09-06 22:31:00,76.8,46.3,28.97,SE,135,4.0,4.0,34,0.00,,,0.00,VWS V13.01,2013-09-07 03:31:00,
2013-09-06 22:36:00,76.6,46.2,28.97,SE,125,2.7,3.6,34,0.00,,,0.00,VWS V13.01,2013-09-07 03:36:00,
2013-09-06 22:41:00,76.5,46.8,28.97,East,98,2.7,3.6,35,0.00,,,0.00,VWS V13.01,2013-09-07 03:41:00,
2013-09-06 22:46:00,76.3,46.7,28.97,SE,142,3.6,3.6,35,0.00,,,0.00,VWS V13.01,2013-09-07 03:46:00,
2013-09-06 22:51:00,76.1,46.5,28.97,SE,124,2.7,4.9,35,0.00,,,0.00,VWS V13.01,2013-09-07 03:51:00,
2013-09-06 22:56:00,75.9,47.1,28.97,ESE,119,3.6,4.9,36,0.00,,,0.00,VWS V13.01,2013-09-07 03:56:00,
2013-09-06 23:01:00,75.7,46.9,28.97,ESE,118,2.7,3.1,36,0.00,,,0.00,VWS V13.01,2013-09-07 04:01:00,
2013-09-06 23:02:00,75.7,46.9,28.97,SE,144,2.7,3.1,36,0.00,,,0.00,VWS V13.01,2013-09-07 04:02:00,
2013-09-06 23:07:00,75.7,46.9,28.97,SE,145,2.7,2.7,36,0.00,,,0.00,VWS V13.01,2013-09-07 04:07:00,
2013-09-06 23:12:00,75.7,46.9,28.97,SE,126,3.6,3.6,36,0.00,,,0.00,VWS V13.01,2013-09-07 04:12:00,
2013-09-06 23:17:00,75.6,46.8,28.97,SE,135,3.6,3.6,36,0.00,,,0.00,VWS V13.01,2013-09-07 04:17:00,
2013-09-06 23:22:00,75.6,46.8,28.97,SE,146,5.4,5.4,36,0.00,,,0.00,VWS V13.01,2013-09-07 04:22:00,
2013-09-06 23:27:00,75.6,46.8,28.94,SE,138,3.1,4.0,36,0.00,,,0.00,VWS V13.01,2013-09-07 04:27:00,
2013-09-06 23:32:00,75.4,46.6,28.94,SE,125,2.2,2.7,36,0.00,,,0.00,VWS V13.01,2013-09-07 04:32:00,
2013-09-06 23:37:00,75.2,47.2,28.94,SE,124,3.1,4.0,37,0.00,,,0.00,VWS V13.01,2013-09-07 04:37:00,
2013-09-06 23:42:00,75.0,47.7,28.94,SSE,162,2.2,3.6,38,0.00,,,0.00,VWS V13.01,2013-09-07 04:42:00,
2013-09-06 23:47:00,74.8,47.6,28.94,SE,145,4.9,4.9,38,0.00,,,0.00,VWS V13.01,2013-09-07 04:47:00,
2013-09-06 23:52:00,74.8,48.2,28.94,SE,146,3.1,5.4,39,0.00,,,0.00,VWS V13.01,2013-09-07 04:52:00,
2013-09-06 23:57:00,74.7,48.1,28.94,SE,143,3.6,3.6,39,0.00,,,0.00,VWS V13.01,2013-09-07 04:57:00,